Hourly Weather Klasterec nad Ohri

Today, 29 July, Thursday

Time Temperature Precipitation Wind Pressure Humidity
00:00 +16°C° 0 mm 2 mps 731 mmHg 94%
01:00 +16°C° 0 mm 2 mps 731 mmHg 94%
02:00 +16°C° 0 mm 2 mps 731 mmHg 95%
03:00 +16°C° 0 mm 2 mps 731 mmHg 95%
04:00 +16°C° 0 mm 2 mps 731 mmHg 95%
05:00 +16°C° 0 mm 3 mps 731 mmHg 91%
06:00 +17°C° 0 mm 3 mps 732 mmHg 87%
07:00 +18°C° 0 mm 4 mps 732 mmHg 83%
08:00 +19°C° 0 mm 4 mps 732 mmHg 72%
09:00 +21°C° 0 mm 5 mps 732 mmHg 62%
10:00 +22°C° 0 mm 6 mps 732 mmHg 52%
11:00 +23°C° 0 mm 6 mps 732 mmHg 50%
12:00 +23°C° 0 mm 6 mps 731 mmHg 47%
13:00 +24°C° 0 mm 6 mps 731 mmHg 44%
14:00 +24°C° 0 mm 6 mps 731 mmHg 44%
15:00 +25°C° 0 mm 5 mps 731 mmHg 45%
16:00 +25°C° 0 mm 5 mps 731 mmHg 45%
17:00 +23°C° 0 mm 4 mps 731 mmHg 51%
18:00 +22°C° 0 mm 4 mps 731 mmHg 58%
19:00 +20°C° 0 mm 3 mps 731 mmHg 64%
20:00 +19°C° 0 mm 3 mps 731 mmHg 69%
21:00 +17°C° 0 mm 2 mps 731 mmHg 74%
22:00 +16°C° 0 mm 2 mps 731 mmHg 79%
23:00 +16°C° 0 mm 2 mps 731 mmHg 81%

Tomorrow, 30 July, Friday

Time Temperature Precipitation Wind Pressure Humidity
00:00 +15°C° 0 mm 2 mps 731 mmHg 82%
01:00 +15°C° 0 mm 2 mps 731 mmHg 83%
02:00 +14°C° 0 mm 2 mps 731 mmHg 84%
03:00 +14°C° 0 mm 1 mps 731 mmHg 85%
04:00 +14°C° 0 mm 1 mps 731 mmHg 86%
05:00 +15°C° 0 mm 1 mps 731 mmHg 80%
06:00 +18°C° 0 mm 1 mps 731 mmHg 74%
07:00 +19°C° 0 mm 1 mps 731 mmHg 69%
08:00 +20°C° 0 mm 2 mps 731 mmHg 63%
09:00 +21°C° 0 mm 2 mps 731 mmHg 56%
10:00 +24°C° 0 mm 3 mps 730 mmHg 50%
11:00 +25°C° 0 mm 3 mps 730 mmHg 47%
12:00 +26°C° 0 mm 4 mps 730 mmHg 45%
13:00 +28°C° 0 mm 4 mps 729 mmHg 42%
14:00 +28°C° 0 mm 4 mps 729 mmHg 42%
15:00 +28°C° 0 mm 4 mps 729 mmHg 42%
16:00 +28°C° 0 mm 4 mps 728 mmHg 42%
17:00 +27°C° 0 mm 3 mps 728 mmHg 50%
18:00 +25°C° 0 mm 2 mps 728 mmHg 59%
19:00 +24°C° 0 mm 1 mps 728 mmHg 68%
20:00 +23°C° 0 mm 1 mps 728 mmHg 71%
21:00 +21°C° 0 mm 1 mps 728 mmHg 75%
22:00 +20°C° 0 mm 1 mps 728 mmHg 79%
23:00 +20°C° 0.3 mm 1 mps 728 mmHg 81%

Day after tomorrow, 31 July, Saturday

Time Temperature Precipitation Wind Pressure Humidity
00:00 +19°C° 0.3 mm 1 mps 728 mmHg 84%
01:00 +18°C° 0.3 mm 2 mps 728 mmHg 86%
02:00 +18°C° 0.2 mm 2 mps 728 mmHg 88%
03:00 +18°C° 0.2 mm 2 mps 728 mmHg 90%
04:00 +18°C° 0.2 mm 2 mps 728 mmHg 92%
05:00 +18°C° 0 mm 3 mps 728 mmHg 90%
06:00 +19°C° 0 mm 3 mps 728 mmHg 88%
07:00 +19°C° 0 mm 3 mps 728 mmHg 85%
08:00 +20°C° 0 mm 4 mps 728 mmHg 74%
09:00 +21°C° 0 mm 5 mps 728 mmHg 63%
10:00 +22°C° 0 mm 6 mps 728 mmHg 51%
11:00 +23°C° 0 mm 6 mps 728 mmHg 48%
12:00 +24°C° 0 mm 6 mps 728 mmHg 45%
13:00 +24°C° 0 mm 6 mps 728 mmHg 42%
14:00 +24°C° 0 mm 6 mps 728 mmHg 42%
15:00 +24°C° 0 mm 6 mps 728 mmHg 43%
16:00 +24°C° 0 mm 6 mps 728 mmHg 43%
17:00 +23°C° 0 mm 5 mps 728 mmHg 50%
18:00 +21°C° 0 mm 4 mps 728 mmHg 56%
19:00 +20°C° 0 mm 3 mps 728 mmHg 63%
20:00 +18°C° 0 mm 3 mps 728 mmHg 70%
21:00 +17°C° 0 mm 2 mps 728 mmHg 76%
22:00 +16°C° 0 mm 2 mps 729 mmHg 82%
23:00 +15°C° 0 mm 2 mps 728 mmHg 83%

1 August, Sunday

Time Temperature Precipitation Wind Pressure Humidity
00:00 +15°C° 0 mm 1 mps 728 mmHg 84%
01:00 +15°C° 0 mm 1 mps 728 mmHg 84%
02:00 +15°C° 0 mm 1 mps 728 mmHg 84%
03:00 +15°C° 0 mm 1 mps 728 mmHg 83%
04:00 +15°C° 0 mm 1 mps 728 mmHg 82%
05:00 +15°C° 0.1 mm 1 mps 728 mmHg 83%
06:00 +16°C° 0.1 mm 1 mps 728 mmHg 83%
07:00 +15°C° 0.1 mm 0 mps 728 mmHg 83%
08:00 +18°C° 0.1 mm 1 mps 728 mmHg 80%
09:00 +19°C° 0.1 mm 1 mps 728 mmHg 77%
10:00 +20°C° 0.1 mm 1 mps 729 mmHg 73%
11:00 +19°C° 0.8 mm 1 mps 729 mmHg 77%
12:00 +18°C° 0.8 mm 2 mps 729 mmHg 81%
13:00 +17°C° 0.8 mm 2 mps 729 mmHg 84%
14:00 +17°C° 0.7 mm 2 mps 729 mmHg 86%
15:00 +17°C° 0.7 mm 2 mps 729 mmHg 87%
16:00 +17°C° 0.7 mm 2 mps 729 mmHg 88%
17:00 +17°C° 0.1 mm 2 mps 729 mmHg 88%
18:00 +16°C° 0.1 mm 1 mps 729 mmHg 89%
19:00 +16°C° 0.1 mm 1 mps 729 mmHg 89%
20:00 +16°C° 0 mm 1 mps 730 mmHg 91%
21:00 +15°C° 0 mm 1 mps 730 mmHg 92%
22:00 +14°C° 0 mm 1 mps 730 mmHg 94%
23:00 +14°C° 0 mm 1 mps 730 mmHg 94%

2 August, Monday

Time Temperature Precipitation Wind Pressure Humidity
00:00 +13°C° 0 mm 1 mps 730 mmHg 94%
01:00 +13°C° 0 mm 1 mps 730 mmHg 94%
02:00 +13°C° 0 mm 1 mps 730 mmHg 94%
03:00 +13°C° 0 mm 1 mps 730 mmHg 94%
04:00 +13°C° 0 mm 1 mps 730 mmHg 94%
05:00 +14°C° 0 mm 2 mps 730 mmHg 92%
06:00 +15°C° 0 mm 2 mps 730 mmHg 89%
07:00 +16°C° 0 mm 2 mps 731 mmHg 87%
08:00 +18°C° 0.2 mm 2 mps 731 mmHg 80%
09:00 +19°C° 0.2 mm 3 mps 731 mmHg 73%
10:00 +21°C° 0.2 mm 3 mps 731 mmHg 66%
11:00 +21°C° 0.3 mm 3 mps 731 mmHg 61%
12:00 +22°C° 0.3 mm 4 mps 731 mmHg 56%
13:00 +23°C° 0.3 mm 4 mps 731 mmHg 51%
14:00 +23°C° 0.2 mm 4 mps 731 mmHg 54%
15:00 +22°C° 0.2 mm 3 mps 731 mmHg 57%
16:00 +22°C° 0.2 mm 3 mps 731 mmHg 60%
17:00 +21°C° 0.1 mm 3 mps 731 mmHg 66%
18:00 +20°C° 0.1 mm 2 mps 731 mmHg 71%
19:00 +19°C° 0.1 mm 2 mps 731 mmHg 77%
20:00 +17°C° 0 mm 2 mps 732 mmHg 81%
21:00 +16°C° 0 mm 2 mps 732 mmHg 85%
22:00 +15°C° 0 mm 1 mps 732 mmHg 89%
23:00 +15°C° 0 mm 1 mps 732 mmHg 89%

3 August, Tuesday

Time Temperature Precipitation Wind Pressure Humidity
00:00 +14°C° 0 mm 1 mps 732 mmHg 90%
01:00 +14°C° 0 mm 1 mps 732 mmHg 90%
02:00 +14°C° 0 mm 1 mps 732 mmHg 90%
03:00 +14°C° 0 mm 1 mps 732 mmHg 90%
04:00 +14°C° 0 mm 1 mps 732 mmHg 90%
05:00 +15°C° 0 mm 2 mps 732 mmHg 86%
06:00 +17°C° 0 mm 2 mps 733 mmHg 82%
07:00 +18°C° 0 mm 2 mps 733 mmHg 79%
08:00 +19°C° 0.2 mm 2 mps 733 mmHg 72%
09:00 +21°C° 0.2 mm 3 mps 733 mmHg 66%
10:00 +22°C° 0.2 mm 3 mps 733 mmHg 60%
11:00 +22°C° 0.5 mm 3 mps 733 mmHg 59%
12:00 +24°C° 0.5 mm 3 mps 732 mmHg 58%
13:00 +24°C° 0.5 mm 3 mps 732 mmHg 56%
14:00 +24°C° 0.2 mm 3 mps 732 mmHg 56%
15:00 +25°C° 0.2 mm 2 mps 732 mmHg 55%
16:00 +25°C° 0.2 mm 2 mps 732 mmHg 54%
17:00 +23°C° 0.3 mm 2 mps 731 mmHg 62%
18:00 +21°C° 0.3 mm 2 mps 731 mmHg 70%
19:00 +20°C° 0.3 mm 1 mps 731 mmHg 78%
20:00 +19°C° 0 mm 1 mps 731 mmHg 81%
21:00 +18°C° 0 mm 1 mps 732 mmHg 83%
22:00 +16°C° 0 mm 1 mps 732 mmHg 86%
23:00 +16°C° 0 mm 1 mps 732 mmHg 87%
Show more